• In Czech Republic
  • List of Countries
  • For 7 days
  • Water Temperature
  • Satellite Maps
  • Weather Map
  • Weather Widgets
  • user-avatar
    Login

    Hourly Weather Klagenfurt

    Today, 26 May, Friday

    Time Temperature Precipitation Wind Pressure Humidity
    00:00 +7°C° 0 mm 1 mps 691 mmHg 92%
    01:00 +7°C° 0 mm 1 mps 691 mmHg 92%
    02:00 +6°C° 0 mm 1 mps 691 mmHg 92%
    03:00 +6°C° 0 mm 1 mps 691 mmHg 92%
    04:00 +6°C° 0 mm 1 mps 691 mmHg 92%
    05:00 +8°C° 0 mm 1 mps 692 mmHg 84%
    06:00 +11°C° 0 mm 1 mps 692 mmHg 76%
    07:00 +13°C° 0 mm 1 mps 693 mmHg 69%
    08:00 +15°C° 0 mm 1 mps 693 mmHg 60%
    09:00 +18°C° 0 mm 1 mps 693 mmHg 52%
    10:00 +20°C° 0 mm 1 mps 693 mmHg 44%
    11:00 +21°C° 0 mm 1 mps 693 mmHg 42%
    12:00 +22°C° 0 mm 1 mps 693 mmHg 40%
    13:00 +23°C° 0 mm 1 mps 693 mmHg 39%
    14:00 +23°C° 0 mm 1 mps 693 mmHg 40%
    15:00 +22°C° 0 mm 1 mps 693 mmHg 42%
    16:00 +21°C° 0 mm 2 mps 692 mmHg 44%
    17:00 +20°C° 0 mm 1 mps 692 mmHg 56%
    18:00 +18°C° 0 mm 1 mps 692 mmHg 67%
    19:00 +15°C° 0 mm 1 mps 691 mmHg 79%
    20:00 +13°C° 0 mm 1 mps 691 mmHg 84%
    21:00 +11°C° 0 mm 1 mps 691 mmHg 89%
    22:00 +9°C° 0 mm 1 mps 691 mmHg 94%
    23:00 +8°C° 0 mm 1 mps 691 mmHg 94%

    Tomorrow, 27 May, Saturday

    Time Temperature Precipitation Wind Pressure Humidity
    00:00 +8°C° 0 mm 1 mps 691 mmHg 95%
    01:00 +8°C° 0 mm 1 mps 691 mmHg 95%
    02:00 +8°C° 0 mm 1 mps 691 mmHg 95%
    03:00 +8°C° 0 mm 1 mps 691 mmHg 95%
    04:00 +7°C° 0 mm 1 mps 691 mmHg 94%
    05:00 +10°C° 0 mm 1 mps 692 mmHg 87%
    06:00 +13°C° 0 mm 1 mps 693 mmHg 79%
    07:00 +15°C° 0 mm 1 mps 693 mmHg 71%
    08:00 +18°C° 0 mm 1 mps 694 mmHg 63%
    09:00 +20°C° 0 mm 1 mps 694 mmHg 55%
    10:00 +22°C° 0 mm 1 mps 694 mmHg 47%
    11:00 +23°C° 0 mm 1 mps 694 mmHg 46%
    12:00 +23°C° 0 mm 1 mps 694 mmHg 45%
    13:00 +24°C° 0 mm 1 mps 694 mmHg 44%
    14:00 +24°C° 0 mm 2 mps 694 mmHg 46%
    15:00 +23°C° 0 mm 2 mps 694 mmHg 49%
    16:00 +23°C° 0 mm 2 mps 694 mmHg 51%
    17:00 +21°C° 0 mm 1 mps 694 mmHg 61%
    18:00 +19°C° 0 mm 1 mps 694 mmHg 71%
    19:00 +16°C° 0 mm 1 mps 693 mmHg 82%
    20:00 +14°C° 0 mm 1 mps 693 mmHg 86%
    21:00 +12°C° 0 mm 1 mps 693 mmHg 90%
    22:00 +10°C° 0 mm 1 mps 693 mmHg 94%
    23:00 +9°C° 0 mm 0 mps 693 mmHg 94%

    Day after tomorrow, 28 May, Sunday

    Time Temperature Precipitation Wind Pressure Humidity
    00:00 +9°C° 0 mm 0 mps 694 mmHg 95%
    01:00 +9°C° 0 mm 0 mps 694 mmHg 95%
    02:00 +8°C° 0 mm 0 mps 693 mmHg 95%
    03:00 +8°C° 0 mm 0 mps 693 mmHg 95%
    04:00 +7°C° 0 mm 0 mps 693 mmHg 95%
    05:00 +10°C° 0 mm 0 mps 694 mmHg 89%
    06:00 +14°C° 0 mm 1 mps 695 mmHg 82%
    07:00 +16°C° 0 mm 1 mps 695 mmHg 76%
    08:00 +19°C° 0 mm 1 mps 696 mmHg 68%
    09:00 +20°C° 0 mm 1 mps 696 mmHg 61%
    10:00 +22°C° 0 mm 1 mps 696 mmHg 54%
    11:00 +23°C° 0 mm 2 mps 696 mmHg 51%
    12:00 +23°C° 0 mm 2 mps 696 mmHg 48%
    13:00 +24°C° 0 mm 2 mps 696 mmHg 44%
    14:00 +24°C° 0 mm 2 mps 696 mmHg 46%
    15:00 +24°C° 0 mm 2 mps 696 mmHg 47%
    16:00 +23°C° 0 mm 2 mps 695 mmHg 49%
    17:00 +21°C° 0 mm 2 mps 695 mmHg 59%
    18:00 +20°C° 0 mm 1 mps 695 mmHg 70%
    19:00 +18°C° 0 mm 1 mps 694 mmHg 80%
    20:00 +15°C° 0 mm 1 mps 694 mmHg 85%
    21:00 +12°C° 0 mm 1 mps 694 mmHg 89%
    22:00 +10°C° 0 mm 1 mps 693 mmHg 93%
    23:00 +10°C° 0 mm 1 mps 693 mmHg 94%

    29 May, Monday

    Time Temperature Precipitation Wind Pressure Humidity
    00:00 +8°C° 0 mm 0 mps 693 mmHg 94%
    01:00 +8°C° 0 mm 0 mps 693 mmHg 94%
    02:00 +8°C° 0 mm 0 mps 692 mmHg 94%
    03:00 +7°C° 0 mm 0 mps 692 mmHg 94%
    04:00 +7°C° 0 mm 0 mps 692 mmHg 94%
    05:00 +10°C° 0 mm 0 mps 692 mmHg 87%
    06:00 +13°C° 0 mm 0 mps 693 mmHg 80%
    07:00 +16°C° 0 mm 0 mps 693 mmHg 72%
    08:00 +18°C° 0 mm 0 mps 694 mmHg 64%
    09:00 +23°C° 0 mm 1 mps 694 mmHg 56%
    10:00 +25°C° 0 mm 1 mps 694 mmHg 49%
    11:00 +25°C° 0 mm 1 mps 694 mmHg 46%
    12:00 +26°C° 0 mm 1 mps 694 mmHg 43%
    13:00 +27°C° 0 mm 1 mps 694 mmHg 41%
    14:00 +26°C° 0 mm 1 mps 693 mmHg 43%
    15:00 +26°C° 0 mm 2 mps 693 mmHg 46%
    16:00 +25°C° 0 mm 2 mps 693 mmHg 48%
    17:00 +23°C° 0 mm 1 mps 692 mmHg 59%
    18:00 +21°C° 0 mm 1 mps 692 mmHg 70%
    19:00 +19°C° 0 mm 1 mps 691 mmHg 81%
    20:00 +16°C° 0 mm 1 mps 691 mmHg 85%
    21:00 +14°C° 0 mm 1 mps 691 mmHg 90%
    22:00 +12°C° 0 mm 1 mps 690 mmHg 94%
    23:00 +12°C° 0 mm 1 mps 690 mmHg 94%

    30 May, Tuesday

    Time Temperature Precipitation Wind Pressure Humidity
    00:00 +12°C° 0 mm 1 mps 690 mmHg 95%
    01:00 +11°C° 0 mm 1 mps 690 mmHg 95%
    02:00 +11°C° 0 mm 1 mps 690 mmHg 95%
    03:00 +11°C° 0 mm 1 mps 689 mmHg 95%
    04:00 +11°C° 0 mm 1 mps 689 mmHg 95%
    05:00 +13°C° 0 mm 1 mps 690 mmHg 89%
    06:00 +16°C° 0 mm 1 mps 690 mmHg 82%
    07:00 +18°C° 0 mm 0 mps 691 mmHg 76%
    08:00 +22°C° 0 mm 1 mps 692 mmHg 68%
    09:00 +24°C° 0 mm 1 mps 692 mmHg 59%
    10:00 +26°C° 0 mm 1 mps 692 mmHg 51%
    11:00 +26°C° 0 mm 1 mps 692 mmHg 48%
    12:00 +27°C° 0 mm 2 mps 692 mmHg 46%
    13:00 +27°C° 0 mm 2 mps 692 mmHg 44%
    14:00 +27°C° 0.1 mm 2 mps 692 mmHg 46%
    15:00 +26°C° 0.1 mm 2 mps 692 mmHg 48%
    16:00 +26°C° 0.1 mm 2 mps 691 mmHg 51%
    17:00 +24°C° 0.1 mm 2 mps 691 mmHg 60%
    18:00 +22°C° 0.1 mm 1 mps 691 mmHg 70%
    19:00 +20°C° 0.1 mm 1 mps 690 mmHg 79%
    20:00 +18°C° 0 mm 1 mps 690 mmHg 83%
    21:00 +15°C° 0 mm 1 mps 690 mmHg 87%
    22:00 +14°C° 0 mm 1 mps 690 mmHg 91%
    23:00 +13°C° 0.1 mm 1 mps 690 mmHg 91%

    31 May, Wednesday

    Time Temperature Precipitation Wind Pressure Humidity
    00:00 +13°C° 0.1 mm 1 mps 690 mmHg 92%
    01:00 +13°C° 0.1 mm 1 mps 690 mmHg 92%
    02:00 +12°C° 0 mm 1 mps 690 mmHg 93%
    03:00 +12°C° 0 mm 1 mps 690 mmHg 93%
    04:00 +12°C° 0 mm 1 mps 689 mmHg 93%
    05:00 +14°C° 0 mm 1 mps 690 mmHg 87%
    06:00 +18°C° 0 mm 1 mps 691 mmHg 80%
    07:00 +20°C° 0 mm 1 mps 691 mmHg 73%
    08:00 +22°C° 0.1 mm 1 mps 692 mmHg 66%
    09:00 +24°C° 0.1 mm 1 mps 692 mmHg 59%
    10:00 +26°C° 0.1 mm 1 mps 693 mmHg 52%
    11:00 +26°C° 0.2 mm 1 mps 693 mmHg 50%
    12:00 +27°C° 0.2 mm 2 mps 692 mmHg 48%
    13:00 +27°C° 0.2 mm 2 mps 692 mmHg 45%
    14:00 +27°C° 0.2 mm 2 mps 692 mmHg 47%
    15:00 +27°C° 0.2 mm 2 mps 692 mmHg 49%
    16:00 +26°C° 0.2 mm 2 mps 692 mmHg 51%
    17:00 +24°C° 0.1 mm 2 mps 691 mmHg 61%
    18:00 +21°C° 0.1 mm 2 mps 691 mmHg 70%
    19:00 +20°C° 0.1 mm 1 mps 690 mmHg 79%
    20:00 +19°C° 0 mm 1 mps 690 mmHg 83%
    21:00 +16°C° 0 mm 1 mps 690 mmHg 88%
    22:00 +14°C° 0 mm 1 mps 690 mmHg 93%
    23:00 +14°C° 0 mm 1 mps 690 mmHg 93%
    Show more